weather.gov     
National Weather Service

Terminal Aerodrome Forecast
NWS Homepage
This page is being discontinued on March 12, 2014.
The same data is available at this site. Please update your bookmarks.
Thank you, and we apologize for the inconvenience.
Please send an email to SR-SRH.Webmaster@noaa.gov with any concerns.


Current Version
Previous Version:    01  02  03  04  05  06  07  08  09  10  11  12  13  14  15  16  17  18  19  20  21  22  23  24  25  
[Printable]
406
FTUS44 KEPZ 311700
TAFDMN
TAF
KDMN 311730Z 3118/0118 11010KT P6SM SCT060 SCT120
     FM312000 19007KT P6SM VCTS SCT060CB BKN100
      TEMPO 3121/0101 2SM TSRA BKN030CB OVC070
     FM010600 15008KT P6SM VCSH SCT040 BKN080
     FM011200 VRB04KT P6SM SCT030 BKN100=


U.S. Dept. of Commerce
NOAA National Weather Service
1325 East West Highway
Silver Spring, MD 20910
E-mail: w-nws.webmaster@noaa.gov
Page last modified: May 16, 2007
NATIONAL WEATHER SERVICE: for Safety, for Work, for Fun - FOR LIFE